TimeEET,TemperatureF,Dew PointF,Humidity,Sea Level PressureIn,VisibilityMPH,Wind Direction,Wind SpeedMPH,Gust SpeedMPH,PrecipitationIn,Events,Conditions,WindDirDegrees,DateUTC
12:20 AM,50.0,37.4,62,30.01,6.2,North,15.0,-,N/A,,Partly Cloudy,360,2013-01-07 22:20:00
12:50 AM,50.0,37.4,62,30.01,6.2,North,15.0,-,N/A,,Partly Cloudy,360,2013-01-07 22:50:00
1:20 AM,50.0,37.4,62,30.01,6.2,North,15.0,-,N/A,,Partly Cloudy,360,2013-01-07 23:20:00
1:50 AM,46.4,32.0,57,30.04,6.2,North,15.0,-,N/A,,Partly Cloudy,360,2013-01-07 23:50:00
2:00 AM,47,33,46,30.05,6,North,15.0,,,,Scattered Clouds,0,2013-01-08 00:00:00
2:20 AM,46.4,32.0,57,30.04,6.2,North,15.0,-,N/A,,Partly Cloudy,10,2013-01-08 00:20:00
2:50 AM,46.4,33.8,62,30.06,6.2,NNW,9.2,20.7,N/A,,Partly Cloudy,340,2013-01-08 00:50:00
3:20 AM,46.4,33.8,62,30.06,6.2,North,6.9,-,N/A,,Partly Cloudy,360,2013-01-08 01:20:00
3:50 AM,44.6,30.2,57,30.06,6.2,NNW,11.5,-,N/A,,Partly Cloudy,330,2013-01-08 01:50:00
4:20 AM,44.6,30.2,57,30.06,6.2,North,8.1,-,N/A,,Partly Cloudy,350,2013-01-08 02:20:00
4:50 AM,42.8,37.4,81,30.06,6.2,North,12.7,-,N/A,,Partly Cloudy,360,2013-01-08 02:50:00
5:20 AM,42.8,37.4,81,30.06,6.2,NNW,5.8,-,N/A,,Partly Cloudy,330,2013-01-08 03:20:00
5:50 AM,42.8,35.6,76,30.09,6.2,North,9.2,-,N/A,,Partly Cloudy,360,2013-01-08 03:50:00
6:20 AM,42.8,35.6,76,30.09,6.2,North,9.2,-,N/A,,Partly Cloudy,350,2013-01-08 04:20:00
6:50 AM,41.0,30.2,65,30.09,6.2,North,6.9,-,N/A,,Partly Cloudy,10,2013-01-08 04:50:00
7:20 AM,41.0,30.2,65,30.09,6.2,South,3.5,-,N/A,,Partly Cloudy,170,2013-01-08 05:20:00
7:50 AM,41.0,30.2,65,30.09,6.2,South,3.5,-,N/A,,Partly Cloudy,180,2013-01-08 05:50:00
8:00 AM,37,34,84,30.12,12,South,3.5,,,,Scattered Clouds,180,2013-01-08 06:00:00
8:20 AM,35.6,33.8,93,30.09,6.2,South,3.5,-,N/A,,Partly Cloudy,180,2013-01-08 06:20:00
8:50 AM,33.8,30.2,87,30.15,-9999.0,Calm,Calm,-,N/A,,Clear,0,2013-01-08 06:50:00
9:20 AM,35.6,30.2,81,30.15,-9999.0,Calm,Calm,-,N/A,,Clear,0,2013-01-08 07:20:00
9:50 AM,39.2,32.0,75,30.15,-9999.0,Calm,Calm,-,N/A,,Clear,0,2013-01-08 07:50:00
10:20 AM,42.8,32.0,66,30.15,-9999.0,Calm,Calm,-,N/A,,Clear,0,2013-01-08 08:20:00
10:50 AM,46.4,35.6,66,30.15,-9999.0,Calm,Calm,-,N/A,,Clear,0,2013-01-08 08:50:00
11:20 AM,48.2,35.6,62,30.18,-9999.0,Calm,Calm,-,N/A,,Clear,0,2013-01-08 09:20:00
11:50 AM,48.2,35.6,62,30.15,-9999.0,Calm,Calm,-,N/A,,Clear,0,2013-01-08 09:50:00
1:20 PM,48.2,35.6,62,30.15,-9999.0,SSE,5.8,-,N/A,,Clear,150,2013-01-08 11:20:00
1:50 PM,48.2,35.6,62,30.15,-9999.0,East,4.6,-,N/A,,Clear,100,2013-01-08 11:50:00
2:00 PM,49,36,50,30.17,12,East,4.6,,,,,100,2013-01-08 12:00:00
2:20 PM,50.0,37.4,62,30.15,-9999.0,Calm,Calm,-,N/A,,Clear,0,2013-01-08 12:20:00
2:50 PM,50.0,41.0,71,30.15,-9999.0,Calm,Calm,-,N/A,,Clear,0,2013-01-08 12:50:00
3:20 PM,50.0,41.0,71,30.15,-9999.0,Calm,Calm,-,N/A,,Clear,0,2013-01-08 13:20:00
4:20 PM,48.2,39.2,71,30.15,-9999.0,Calm,Calm,-,N/A,,Clear,0,2013-01-08 14:20:00
4:50 PM,48.2,39.2,71,30.15,-9999.0,Calm,Calm,-,N/A,,Clear,0,2013-01-08 14:50:00
5:20 PM,48.2,39.2,71,30.15,-9999.0,Calm,Calm,-,N/A,,Clear,0,2013-01-08 15:20:00
5:50 PM,44.6,41.0,87,30.15,-9999.0,Calm,Calm,-,N/A,,Clear,0,2013-01-08 15:50:00
6:20 PM,44.6,41.0,87,30.15,-9999.0,Calm,Calm,-,N/A,,Clear,0,2013-01-08 16:20:00
6:50 PM,42.8,39.2,87,30.15,-9999.0,Calm,Calm,-,N/A,,Clear,0,2013-01-08 16:50:00
7:50 PM,39.2,33.8,81,30.15,-9999.0,Calm,Calm,-,N/A,,Clear,0,2013-01-08 17:50:00
8:00 PM,40,33,68,30.17,6,Calm,Calm,,,,Partly Cloudy,,2013-01-08 18:00:00
8:20 PM,37.4,32.0,81,30.15,-9999.0,Calm,Calm,-,N/A,,Clear,0,2013-01-08 18:20:00
8:50 PM,37.4,30.2,75,30.15,-9999.0,Calm,Calm,-,N/A,,Clear,0,2013-01-08 18:50:00
9:20 PM,37.4,30.2,75,30.15,-9999.0,Calm,Calm,-,N/A,,Clear,0,2013-01-08 19:20:00
9:50 PM,41.0,32.0,70,30.18,-9999.0,Calm,Calm,-,N/A,,Clear,0,2013-01-08 19:50:00
10:20 PM,41.0,32.0,70,30.18,-9999.0,Calm,Calm,-,N/A,,Clear,0,2013-01-08 20:20:00
10:50 PM,39.2,35.6,87,30.18,-9999.0,Calm,Calm,-,N/A,,Clear,0,2013-01-08 20:50:00
11:20 PM,39.2,35.6,87,30.18,-9999.0,Calm,Calm,-,N/A,,Clear,0,2013-01-08 21:20:00
11:50 PM,37.4,33.8,87,30.18,-9999.0,Calm,Calm,-,N/A,,Clear,0,2013-01-08 21:50:00